813  
ASUS41 KBGM 271610  
RWRBGM  
 
REGIONAL WEATHER ROUNDUP  
NATIONAL WEATHER SERVICE BINGHAMTON NY  
1200 PM EDT MON MAR 27 2017  
 
NOTE: "FAIR" INDICATES FEW OR NO CLOUDS BELOW 12,000 FEET WITH NO  
SIGNIFICANT WEATHER AND/OR S TO VISIBILITY
.  
 
* = STATION(S) THAT DOES NOT REPORT PRECIPITATION, SUCH AS RAIN,  
SNOW, ETC, ALSO NO THUNDER OR FOG.
 
 
NYZ009-015>018-022>025-036-037-044>046-055>057-062-271700   
..CENTRAL NEW YORK
 
 
 
CITY SKY/WX TMP DP RH WIND PRES REMARKS
 
BINGHAMTON CLOUDY 40 40 100 SW6 29.98S  
CORTLAND CLOUDY 45 43 93 S3 29.97F  
DANSVILLE CLOUDY 53 48 83 E8 29.94S  
ELMIRA CLOUDY 52 45 77 VRB6 29.97F  
SENECA FALLS CLOUDY 52 46 82 S9 29.95S  
ITHACA PTSUNNY 48 44 86 S8 29.97S  
HAMILTON CLOUDY 39 36 87 SE8 29.98S WCI 34  
MONTICELLO CLOUDY 36 34 93 NE3 30.04F VSB<1/4  
NORWICH CLOUDY 43 37 81 S7 30.00F  
ONEONTA CLOUDY 43 43 100 SW10 29.98S  
PENN YAN LGT RAIN 49 43 80 S13 29.94S  
ROME CLOUDY 40 39 97 E8 30.00F WCI 34  
SIDNEY CLOUDY 41 41 100 CALM 30.01S  
SYRACUSE CLOUDY 49 43 80 S8 29.95S  

 
 
PAZ038>040-043-044-047-048-072-271700   
..NORTHEAST PENNSYLVANIA
 
 
 
CITY SKY/WX TMP DP RH WIND PRES REMARKS
 
HAZLETON CLOUDY 52 50 93 CALM 30.04F  
SCRANTON CLOUDY 46 43 89 W3 30.02F  

 

 
KEY  
WCI = WIND CHILL INDEX  
VSB = VISIBILITY  
HX = HEAT INDEX  

 
 
 
CLICK HERE TO GO TO PREVIOUS BULLETINS.

The Nexlab NY Page
The Nexlab PA Page Main Text Page